• In Russia
  • List of Countries
  • For 7 days
  • Water Temperature
  • Satellite Maps
  • Weather Map
  • Weather Widgets
  • user-avatar
    Login

    Hourly Weather Idzhewan

    Today, 20 October, Friday

    Time Temperature Precipitation Wind Pressure Humidity
    00:00 +12°C° 0 mm 1 mps 696 mmHg 72%
    01:00 +11°C° 0 mm 1 mps 695 mmHg 70%
    02:00 +11°C° 0 mm 1 mps 695 mmHg 68%
    03:00 +11°C° 0 mm 1 mps 695 mmHg 66%
    04:00 +10°C° 0 mm 2 mps 695 mmHg 64%
    05:00 +10°C° 0 mm 2 mps 695 mmHg 62%
    06:00 +10°C° 0 mm 2 mps 695 mmHg 60%
    07:00 +13°C° 0 mm 2 mps 695 mmHg 54%
    08:00 +15°C° 0 mm 1 mps 695 mmHg 49%
    09:00 +16°C° 0 mm 1 mps 696 mmHg 43%
    10:00 +19°C° 0 mm 1 mps 695 mmHg 40%
    11:00 +20°C° 0 mm 1 mps 695 mmHg 37%
    12:00 +20°C° 0 mm 2 mps 695 mmHg 34%
    13:00 +21°C° 0 mm 1 mps 695 mmHg 34%
    14:00 +21°C° 0 mm 1 mps 695 mmHg 35%
    15:00 +21°C° 0 mm 1 mps 695 mmHg 35%
    16:00 +20°C° 0 mm 1 mps 695 mmHg 41%
    17:00 +18°C° 0 mm 1 mps 695 mmHg 47%
    18:00 +14°C° 0 mm 0 mps 694 mmHg 53%
    19:00 +15°C° 0 mm 1 mps 695 mmHg 54%
    20:00 +14°C° 0 mm 1 mps 695 mmHg 55%
    21:00 +14°C° 0 mm 1 mps 695 mmHg 56%
    22:00 +13°C° 0 mm 1 mps 695 mmHg 57%
    23:00 +13°C° 0 mm 1 mps 695 mmHg 59%

    Tomorrow, 21 October, Saturday

    Time Temperature Precipitation Wind Pressure Humidity
    00:00 +13°C° 0 mm 1 mps 695 mmHg 60%
    01:00 +12°C° 0 mm 1 mps 695 mmHg 61%
    02:00 +12°C° 0 mm 1 mps 695 mmHg 63%
    03:00 +12°C° 0 mm 1 mps 695 mmHg 64%
    04:00 +11°C° 0 mm 1 mps 695 mmHg 64%
    05:00 +11°C° 0 mm 1 mps 694 mmHg 64%
    06:00 +11°C° 0 mm 1 mps 694 mmHg 64%
    07:00 +13°C° 0 mm 1 mps 695 mmHg 58%
    08:00 +14°C° 0 mm 1 mps 695 mmHg 52%
    09:00 +16°C° 0 mm 1 mps 695 mmHg 46%
    10:00 +18°C° 0 mm 1 mps 695 mmHg 43%
    11:00 +19°C° 0 mm 1 mps 694 mmHg 41%
    12:00 +19°C° 0 mm 2 mps 694 mmHg 38%
    13:00 +19°C° 0 mm 2 mps 694 mmHg 39%
    14:00 +19°C° 0 mm 2 mps 693 mmHg 40%
    15:00 +19°C° 0 mm 2 mps 693 mmHg 40%
    16:00 +19°C° 0 mm 1 mps 693 mmHg 48%
    17:00 +16°C° 0 mm 1 mps 692 mmHg 55%
    18:00 +13°C° 0 mm 0 mps 692 mmHg 62%
    19:00 +13°C° 0 mm 0 mps 692 mmHg 63%
    20:00 +14°C° 0 mm 1 mps 692 mmHg 65%
    21:00 +13°C° 0 mm 1 mps 693 mmHg 66%
    22:00 +13°C° 0 mm 1 mps 692 mmHg 67%
    23:00 +13°C° 0 mm 1 mps 692 mmHg 67%

    Day after tomorrow, 22 October, Sunday

    Time Temperature Precipitation Wind Pressure Humidity
    00:00 +12°C° 0 mm 1 mps 692 mmHg 68%
    01:00 +12°C° 0 mm 1 mps 692 mmHg 67%
    02:00 +12°C° 0 mm 1 mps 692 mmHg 66%
    03:00 +11°C° 0 mm 1 mps 692 mmHg 65%
    04:00 +11°C° 0 mm 1 mps 692 mmHg 63%
    05:00 +11°C° 0 mm 1 mps 692 mmHg 61%
    06:00 +11°C° 0 mm 1 mps 692 mmHg 59%
    07:00 +12°C° 0 mm 1 mps 692 mmHg 53%
    08:00 +14°C° 0 mm 1 mps 692 mmHg 47%
    09:00 +16°C° 0 mm 1 mps 692 mmHg 41%
    10:00 +17°C° 0 mm 2 mps 692 mmHg 39%
    11:00 +18°C° 0 mm 2 mps 691 mmHg 38%
    12:00 +19°C° 0 mm 2 mps 691 mmHg 36%
    13:00 +19°C° 0 mm 2 mps 691 mmHg 37%
    14:00 +19°C° 0 mm 2 mps 690 mmHg 37%
    15:00 +19°C° 0 mm 2 mps 690 mmHg 38%
    16:00 +17°C° 0 mm 2 mps 690 mmHg 45%
    17:00 +16°C° 0 mm 1 mps 690 mmHg 51%
    18:00 +14°C° 0 mm 1 mps 690 mmHg 58%
    19:00 +14°C° 0 mm 1 mps 690 mmHg 59%
    20:00 +14°C° 0 mm 1 mps 690 mmHg 61%
    21:00 +13°C° 0 mm 1 mps 691 mmHg 62%
    22:00 +13°C° 0 mm 1 mps 691 mmHg 61%
    23:00 +13°C° 0 mm 1 mps 691 mmHg 60%

    23 October, Monday

    Time Temperature Precipitation Wind Pressure Humidity
    00:00 +13°C° 0 mm 1 mps 691 mmHg 60%
    01:00 +12°C° 0 mm 1 mps 691 mmHg 60%
    02:00 +12°C° 0 mm 1 mps 691 mmHg 60%
    03:00 +11°C° 0 mm 1 mps 691 mmHg 60%
    04:00 +11°C° 0 mm 1 mps 691 mmHg 60%
    05:00 +10°C° 0 mm 2 mps 692 mmHg 59%
    06:00 +9°C° 0 mm 2 mps 692 mmHg 59%
    07:00 +12°C° 0 mm 2 mps 692 mmHg 54%
    08:00 +14°C° 0 mm 2 mps 693 mmHg 49%
    09:00 +15°C° 0 mm 2 mps 693 mmHg 43%
    10:00 +16°C° 0 mm 2 mps 693 mmHg 41%
    11:00 +18°C° 0 mm 2 mps 693 mmHg 39%
    12:00 +19°C° 0 mm 2 mps 693 mmHg 36%
    13:00 +19°C° 0 mm 2 mps 693 mmHg 36%
    14:00 +19°C° 0 mm 2 mps 693 mmHg 37%
    15:00 +19°C° 0 mm 2 mps 693 mmHg 37%
    16:00 +17°C° 0 mm 2 mps 693 mmHg 44%
    17:00 +15°C° 0 mm 2 mps 693 mmHg 51%
    18:00 +14°C° 0 mm 2 mps 693 mmHg 58%
    19:00 +13°C° 0 mm 1 mps 694 mmHg 61%
    20:00 +12°C° 0 mm 1 mps 694 mmHg 65%
    21:00 +12°C° 0 mm 1 mps 694 mmHg 68%
    22:00 +11°C° 0 mm 1 mps 694 mmHg 74%
    23:00 +11°C° 0 mm 1 mps 694 mmHg 79%

    24 October, Tuesday

    Time Temperature Precipitation Wind Pressure Humidity
    00:00 +10°C° 0 mm 1 mps 694 mmHg 84%
    01:00 +10°C° 0.1 mm 1 mps 694 mmHg 86%
    02:00 +10°C° 0.1 mm 1 mps 694 mmHg 87%
    03:00 +10°C° 0.1 mm 1 mps 694 mmHg 89%
    04:00 +10°C° 0 mm 1 mps 695 mmHg 89%
    05:00 +10°C° 0 mm 1 mps 695 mmHg 89%
    06:00 +10°C° 0 mm 1 mps 695 mmHg 90%
    07:00 +10°C° 0 mm 2 mps 695 mmHg 85%
    08:00 +12°C° 0 mm 2 mps 695 mmHg 79%
    09:00 +12°C° 0 mm 2 mps 695 mmHg 74%
    10:00 +13°C° 0 mm 2 mps 695 mmHg 70%
    11:00 +14°C° 0 mm 2 mps 695 mmHg 67%
    12:00 +15°C° 0 mm 2 mps 695 mmHg 63%
    13:00 +15°C° 0 mm 2 mps 694 mmHg 63%
    14:00 +15°C° 0 mm 2 mps 694 mmHg 63%
    15:00 +15°C° 0 mm 2 mps 694 mmHg 63%
    16:00 +14°C° 0 mm 2 mps 694 mmHg 69%
    17:00 +13°C° 0 mm 1 mps 695 mmHg 74%
    18:00 +12°C° 0 mm 1 mps 695 mmHg 80%
    19:00 +12°C° 0 mm 1 mps 695 mmHg 79%
    20:00 +11°C° 0 mm 1 mps 695 mmHg 79%
    21:00 +11°C° 0 mm 1 mps 696 mmHg 78%
    22:00 +11°C° 0 mm 1 mps 696 mmHg 76%
    23:00 +11°C° 0 mm 1 mps 696 mmHg 75%

    25 October, Wednesday

    Time Temperature Precipitation Wind Pressure Humidity
    00:00 +10°C° 0 mm 1 mps 696 mmHg 73%
    01:00 +10°C° 0 mm 1 mps 696 mmHg 71%
    02:00 +10°C° 0 mm 1 mps 696 mmHg 70%
    03:00 +10°C° 0 mm 1 mps 696 mmHg 68%
    04:00 +10°C° 0 mm 1 mps 696 mmHg 66%
    05:00 +9°C° 0 mm 2 mps 696 mmHg 65%
    06:00 +9°C° 0 mm 2 mps 696 mmHg 63%
    07:00 +12°C° 0 mm 2 mps 696 mmHg 57%
    08:00 +14°C° 0 mm 2 mps 697 mmHg 51%
    09:00 +16°C° 0 mm 2 mps 697 mmHg 45%
    10:00 +18°C° 0 mm 2 mps 697 mmHg 42%
    11:00 +19°C° 0 mm 2 mps 697 mmHg 38%
    12:00 +21°C° 0 mm 2 mps 697 mmHg 35%
    13:00 +21°C° 0 mm 2 mps 696 mmHg 35%
    14:00 +21°C° 0 mm 2 mps 696 mmHg 35%
    15:00 +21°C° 0 mm 2 mps 696 mmHg 35%
    16:00 +19°C° 0 mm 2 mps 696 mmHg 40%
    17:00 +18°C° 0 mm 1 mps 696 mmHg 46%
    18:00 +15°C° 0 mm 1 mps 696 mmHg 51%
    19:00 +15°C° 0 mm 1 mps 696 mmHg 51%
    20:00 +15°C° 0 mm 1 mps 696 mmHg 51%
    21:00 +14°C° 0 mm 1 mps 697 mmHg 52%
    22:00 +14°C° 0 mm 1 mps 697 mmHg 53%
    23:00 +13°C° 0 mm 1 mps 697 mmHg 55%
    Show more